PAA564 KMDW-KLAS

Flight info

Callsign PAA564
Flight time N/A
Altitude 28000
Route MZV OTM LMN PWE TKO HLC LAA PUB HBU DVC PGA GCN PGS BLD
Aircraft B722/M-SDIWY/C

Departure

Time N/A
Airport Chicago Midway International Airport (KMDW)

Arrival

Time 2026-04-30 21:04
Airport Harry Reid International Airport (KLAS)
Time Latitude Longitude Altitude Speed Heading
2026-04-30 19:44 38.37151 -105.57199 36156 ft 399 kts 271°
2026-04-30 19:45 38.37538 -105.64251 36095 ft 399 kts 271°
2026-04-30 19:45 38.37928 -105.71356 36130 ft 403 kts 271°
2026-04-30 19:46 38.38320 -105.78480 36098 ft 402 kts 271°
2026-04-30 19:46 38.38712 -105.85592 36092 ft 403 kts 271°
2026-04-30 19:47 38.39105 -105.92691 36070 ft 403 kts 271°
2026-04-30 19:47 38.39497 -105.99823 36111 ft 403 kts 271°
2026-04-30 19:48 38.39886 -106.07009 36116 ft 407 kts 271°
2026-04-30 19:48 38.40287 -106.14217 36108 ft 406 kts 271°
2026-04-30 19:49 38.40674 -106.21368 36103 ft 407 kts 271°
2026-04-30 19:49 38.41275 -106.32188 36087 ft 407 kts 271°
2026-04-30 19:50 38.41674 -106.39403 36136 ft 408 kts 271°
2026-04-30 19:50 38.42000 -106.45388 36074 ft 406 kts 271°
2026-04-30 19:51 38.42392 -106.52573 36063 ft 406 kts 271°
2026-04-30 19:51 38.42787 -106.59783 36057 ft 406 kts 271°
2026-04-30 19:52 38.43181 -106.66966 36054 ft 406 kts 271°
2026-04-30 19:52 38.43574 -106.74124 36058 ft 409 kts 271°
2026-04-30 19:53 38.43972 -106.81374 36047 ft 409 kts 271°
2026-04-30 19:53 38.44368 -106.88611 36131 ft 409 kts 271°
2026-04-30 19:54 38.44766 -106.95845 36131 ft 409 kts 271°
2026-04-30 19:54 38.45165 -107.03099 36122 ft 410 kts 271°
2026-04-30 19:55 38.45563 -107.10372 36114 ft 412 kts 271°
2026-04-30 19:55 38.45963 -107.17681 36100 ft 412 kts 271°
2026-04-30 19:56 38.46176 -107.24915 36071 ft 410 kts 262°
2026-04-30 19:56 38.44693 -107.31932 36064 ft 411 kts 252°
2026-04-30 19:57 38.42571 -107.38721 36041 ft 412 kts 248°
2026-04-30 19:57 38.40056 -107.45361 36032 ft 417 kts 246°
2026-04-30 19:58 38.37388 -107.51923 36014 ft 416 kts 245°
2026-04-30 19:58 38.34745 -107.58485 36011 ft 416 kts 246°
2026-04-30 19:59 38.32131 -107.65062 35993 ft 416 kts 246°
2026-04-30 20:00 38.28231 -107.74891 35968 ft 417 kts 246°
2026-04-30 20:00 38.25591 -107.81527 36030 ft 419 kts 246°
2026-04-30 20:01 38.21650 -107.91410 36001 ft 419 kts 246°
2026-04-30 20:01 38.19008 -107.98034 35991 ft 419 kts 246°
2026-04-30 20:02 38.15048 -108.07960 35984 ft 420 kts 246°
2026-04-30 20:03 38.11081 -108.17883 35962 ft 420 kts 246°
2026-04-30 20:03 38.08455 -108.24457 35961 ft 420 kts 246°
2026-04-30 20:04 38.05808 -108.31069 35967 ft 420 kts 246°
2026-04-30 20:05 38.01840 -108.40969 35969 ft 420 kts 246°
2026-04-30 20:05 37.97844 -108.50933 35942 ft 424 kts 246°
2026-04-30 20:06 37.95172 -108.57599 35930 ft 423 kts 246°
2026-04-30 20:06 37.92517 -108.64203 35929 ft 423 kts 246°
2026-04-30 20:07 37.89838 -108.70861 35933 ft 424 kts 246°
2026-04-30 20:08 37.85822 -108.80842 35935 ft 426 kts 246°
2026-04-30 20:08 37.83124 -108.87550 35935 ft 427 kts 245°
2026-04-30 20:09 37.80428 -108.94235 35938 ft 427 kts 245°
2026-04-30 20:09 37.78898 -108.97397 35889 ft 432 kts 232°
2026-04-30 20:09 37.74664 -109.02808 35950 ft 428 kts 240°
2026-04-30 20:10 37.71018 -109.12980 35936 ft 425 kts 251°
2026-04-30 20:11 37.67935 -109.23548 35991 ft 428 kts 251°
2026-04-30 20:11 37.65892 -109.30613 36017 ft 428 kts 251°
2026-04-30 20:12 37.62579 -109.41037 36052 ft 428 kts 249°
2026-04-30 20:13 37.60254 -109.47970 36038 ft 431 kts 249°
2026-04-30 20:13 37.57907 -109.54944 36043 ft 432 kts 249°
2026-04-30 20:14 37.55558 -109.61913 36033 ft 431 kts 249°
2026-04-30 20:14 37.53211 -109.68874 35906 ft 432 kts 249°
2026-04-30 20:15 37.50877 -109.75795 35902 ft 431 kts 249°
2026-04-30 20:15 37.48518 -109.82783 35902 ft 435 kts 249°
2026-04-30 20:16 37.46149 -109.89805 35902 ft 435 kts 249°
2026-04-30 20:16 37.43780 -109.96822 35905 ft 435 kts 249°
2026-04-30 20:17 37.41426 -110.03795 35906 ft 435 kts 249°
2026-04-30 20:17 37.39058 -110.10805 35905 ft 435 kts 249°
2026-04-30 20:18 37.36682 -110.17839 35903 ft 439 kts 249°
2026-04-30 20:18 37.34297 -110.24903 35901 ft 438 kts 248°
2026-04-30 20:19 37.31886 -110.31944 35902 ft 439 kts 246°
2026-04-30 20:19 37.29122 -110.38772 35899 ft 442 kts 234°
2026-04-30 20:20 37.24565 -110.44055 35915 ft 450 kts 222°
2026-04-30 20:20 37.19524 -110.48685 35904 ft 454 kts 219°
2026-04-30 20:21 37.14320 -110.53285 35908 ft 455 kts 219°
2026-04-30 20:21 37.09164 -110.57809 35911 ft 454 kts 219°
2026-04-30 20:22 37.03982 -110.62347 35905 ft 453 kts 219°
2026-04-30 20:22 36.98808 -110.66876 35909 ft 454 kts 219°
2026-04-30 20:23 36.93632 -110.71402 35907 ft 453 kts 219°
2026-04-30 20:23 36.88454 -110.75928 35902 ft 454 kts 219°
2026-04-30 20:24 36.83271 -110.80456 35899 ft 454 kts 219°
2026-04-30 20:24 36.78100 -110.84972 35895 ft 457 kts 219°
2026-04-30 20:25 36.70253 -110.91821 35892 ft 458 kts 218°
2026-04-30 20:26 36.62408 -110.98657 35893 ft 459 kts 218°
2026-04-30 20:26 36.54558 -111.05491 35900 ft 459 kts 218°
2026-04-30 20:27 36.44135 -111.14551 35891 ft 459 kts 218°
2026-04-30 20:28 36.34640 -111.24924 35906 ft 454 kts 242°
2026-04-30 20:30 36.27986 -111.42666 35891 ft 453 kts 246°
2026-04-30 20:31 36.18990 -111.63363 35251 ft 458 kts 242°
2026-04-30 20:32 36.14363 -111.73699 34325 ft 458 kts 243°
2026-04-30 20:32 36.11292 -111.80581 33737 ft 457 kts 243°
2026-04-30 20:33 36.09745 -111.84039 33406 ft 458 kts 243°
2026-04-30 20:33 36.06677 -111.90888 32774 ft 453 kts 243°
2026-04-30 20:33 36.05151 -111.94291 32463 ft 451 kts 243°
2026-04-30 20:34 36.02126 -112.01030 31829 ft 446 kts 243°
2026-04-30 20:34 35.99144 -112.07668 31222 ft 443 kts 243°
2026-04-30 20:35 35.97647 -112.11004 30913 ft 441 kts 243°
2026-04-30 20:35 35.96161 -112.14315 30595 ft 441 kts 243°
2026-04-30 20:35 35.93654 -112.21035 29946 ft 414 kts 250°
2026-04-30 20:36 35.92686 -112.24324 29566 ft 405 kts 253°
2026-04-30 20:36 35.92123 -112.26513 29314 ft 403 kts 255°
2026-04-30 20:36 35.90617 -112.33130 28575 ft 399 kts 257°
2026-04-30 20:37 35.89891 -112.36433 28210 ft 397 kts 257°
2026-04-30 20:37 35.89160 -112.39697 28001 ft 393 kts 256°
2026-04-30 20:37 35.88418 -112.42950 27985 ft 395 kts 256°
2026-04-30 20:37 35.87665 -112.46209 27966 ft 396 kts 256°
2026-04-30 20:38 35.86901 -112.49499 27949 ft 400 kts 256°
2026-04-30 20:38 35.86134 -112.52793 27912 ft 400 kts 256°
2026-04-30 20:38 35.85368 -112.56084 27914 ft 399 kts 256°
2026-04-30 20:39 35.83837 -112.62671 27914 ft 399 kts 256°
2026-04-30 20:39 35.83074 -112.65957 27914 ft 399 kts 256°
2026-04-30 20:39 35.82320 -112.69204 27914 ft 399 kts 256°
2026-04-30 20:40 35.80792 -112.75784 27911 ft 399 kts 256°
2026-04-30 20:40 35.80024 -112.79086 27905 ft 400 kts 256°
2026-04-30 20:40 35.79255 -112.82398 27905 ft 404 kts 256°
2026-04-30 20:41 35.77709 -112.89048 27907 ft 403 kts 256°
2026-04-30 20:41 35.76938 -112.92363 27908 ft 403 kts 256°
2026-04-30 20:41 35.76166 -112.95679 27907 ft 403 kts 256°
2026-04-30 20:41 35.75393 -112.98998 27897 ft 403 kts 256°
2026-04-30 20:42 35.74631 -113.02274 27897 ft 403 kts 256°
2026-04-30 20:42 35.73860 -113.05590 27896 ft 403 kts 256°
2026-04-30 20:42 35.72316 -113.12223 27876 ft 405 kts 256°
2026-04-30 20:43 35.71538 -113.15563 27880 ft 406 kts 256°
2026-04-30 20:43 35.70760 -113.18901 27883 ft 406 kts 256°
2026-04-30 20:43 35.69983 -113.22236 27882 ft 406 kts 256°
2026-04-30 20:44 35.68426 -113.28919 27868 ft 406 kts 256°
2026-04-30 20:44 35.67647 -113.32259 27868 ft 406 kts 256°
2026-04-30 20:44 35.66102 -113.38887 27858 ft 406 kts 256°
2026-04-30 20:45 35.64540 -113.45582 27848 ft 409 kts 256°
2026-04-30 20:45 35.63756 -113.48942 27856 ft 408 kts 256°
2026-04-30 20:45 35.62985 -113.52243 27842 ft 408 kts 256°
2026-04-30 20:46 35.62388 -113.62359 26834 ft 394 kts 288°
2026-04-30 20:46 35.63294 -113.65519 26522 ft 391 kts 294°
2026-04-30 20:47 35.65432 -113.71636 25897 ft 387 kts 295°
2026-04-30 20:47 35.66448 -113.74657 25592 ft 386 kts 294°
2026-04-30 20:48 35.68356 -113.80838 24966 ft 385 kts 292°
2026-04-30 20:48 35.69269 -113.83930 24653 ft 383 kts 292°
2026-04-30 20:48 35.70173 -113.87013 24367 ft 382 kts 292°
2026-04-30 20:48 35.71079 -113.90088 24061 ft 380 kts 292°
2026-04-30 20:49 35.71968 -113.93100 23780 ft 379 kts 293°
2026-04-30 20:49 35.72859 -113.96110 23500 ft 372 kts 293°
2026-04-30 20:49 35.73746 -113.99099 23152 ft 371 kts 293°
2026-04-30 20:50 35.75510 -114.05032 22446 ft 367 kts 293°
2026-04-30 20:50 35.76384 -114.07976 22110 ft 366 kts 293°
2026-04-30 20:50 35.77257 -114.10915 21770 ft 364 kts 292°
2026-04-30 20:50 35.78121 -114.13827 21431 ft 360 kts 293°
2026-04-30 20:51 35.78979 -114.16719 21094 ft 359 kts 292°
2026-04-30 20:51 35.80677 -114.22446 20456 ft 353 kts 292°
2026-04-30 20:51 35.81520 -114.25291 20140 ft 351 kts 292°
2026-04-30 20:52 35.82360 -114.28115 19820 ft 352 kts 292°
2026-04-30 20:52 35.83194 -114.30932 19516 ft 347 kts 292°
2026-04-30 20:52 35.84837 -114.36490 18901 ft 340 kts 292°
2026-04-30 20:53 35.85644 -114.39217 18600 ft 339 kts 292°
2026-04-30 20:53 35.86458 -114.41959 18295 ft 340 kts 292°
2026-04-30 20:53 35.87265 -114.44683 17982 ft 338 kts 291°
2026-04-30 20:54 35.88867 -114.50102 17320 ft 335 kts 291°
2026-04-30 20:54 35.89667 -114.52806 16985 ft 333 kts 292°
2026-04-30 20:54 35.90457 -114.55479 16670 ft 332 kts 292°
2026-04-30 20:55 35.92054 -114.60851 16020 ft 335 kts 291°
2026-04-30 20:55 35.92838 -114.63525 15697 ft 328 kts 292°
2026-04-30 20:55 35.93616 -114.66167 15401 ft 326 kts 292°
2026-04-30 20:56 35.95188 -114.71439 14788 ft 329 kts 291°
2026-04-30 20:56 35.95973 -114.74095 14484 ft 328 kts 291°
2026-04-30 20:56 35.97470 -114.79221 13247 ft 311 kts 291°
2026-04-30 20:57 35.97995 -114.80923 10144 ft 303 kts 293°
2026-04-30 20:57 35.98709 -114.83294 9810 ft 290 kts 292°
2026-04-30 20:57 35.99386 -114.85617 9465 ft 283 kts 292°
2026-04-30 20:58 36.00678 -114.90101 8764 ft 271 kts 292°
2026-04-30 20:58 36.00950 -114.91715 6589 ft 0 kts 276°
2026-04-30 20:58 36.00868 -114.93972 6285 ft 262 kts 263°
2026-04-30 20:58 36.00531 -114.96120 5968 ft 254 kts 261°
2026-04-30 20:59 35.99835 -115.00283 5363 ft 239 kts 262°
2026-04-30 20:59 35.99498 -115.02227 5018 ft 229 kts 263°
2026-04-30 21:00 35.98910 -115.06021 5005 ft 224 kts 266°
2026-04-30 21:00 35.98753 -115.09802 4710 ft 218 kts 271°
2026-04-30 21:01 35.98907 -115.13165 4142 ft 185 kts 287°
2026-04-30 21:01 35.99198 -115.14628 4004 ft 164 kts 290°
2026-04-30 21:01 36.00348 -115.16712 3600 ft 142 kts 330°
2026-04-30 21:02 36.01186 -115.17371 3524 ft 143 kts 336°
2026-04-30 21:02 36.02072 -115.17964 3565 ft 145 kts 339°
2026-04-30 21:02 36.02983 -115.18468 3425 ft 140 kts 342°
2026-04-30 21:02 36.03920 -115.18692 3097 ft 135 kts
2026-04-30 21:03 36.04838 -115.18567 2855 ft 134 kts 19°
2026-04-30 21:03 36.05716 -115.18085 2663 ft 142 kts 26°
2026-04-30 21:03 36.06592 -115.17565 2455 ft 137 kts 27°
2026-04-30 21:03 36.07451 -115.17087 2241 ft 133 kts 26°
2026-04-30 21:04 36.08261 -115.16612 2128 ft 118 kts 27°
2026-04-30 21:04 36.08864 -115.16275 2130 ft 70 kts 25°
2026-04-30 21:04 36.09356 -115.15963 2126 ft 14 kts 75°
2026-04-30 21:05 36.09331 -115.15850 2125 ft 15 kts 114°
2026-04-30 21:05 36.09285 -115.15726 2127 ft 16 kts 115°
2026-04-30 21:05 36.09238 -115.15601 2130 ft 15 kts 116°
2026-04-30 21:05 36.09160 -115.15536 2127 ft 15 kts 191°
2026-04-30 21:06 36.09040 -115.15510 2123 ft 21 kts 172°
2026-04-30 21:06 36.08901 -115.15507 2120 ft 21 kts 181°
2026-04-30 21:06 36.08763 -115.15509 2120 ft 15 kts 180°
2026-04-30 21:06 36.08656 -115.15533 2120 ft 17 kts 215°
2026-04-30 21:07 36.08555 -115.15603 2123 ft 13 kts 195°
2026-04-30 21:07 36.08467 -115.15573 2124 ft 15 kts 156°
2026-04-30 21:07 36.08377 -115.15520 2124 ft 12 kts 139°
2026-04-30 21:07 36.08387 -115.15415 2120 ft 13 kts 63°
2026-04-30 21:08 36.08433 -115.15321 2117 ft 12 kts 26°
2026-04-30 21:08 36.08506 -115.15338 2119 ft 5 kts 334°
2026-04-30 21:08 36.08522 -115.15348 2118 ft 2 kts 334°
2026-04-30 21:08 36.08523 -115.15349 2118 ft 0 kts 334°